EW8735 Weather Reports


time (UTC)temp
F
wind
direction
speed
knots
gust
knots
rain 1hr
in
rain 24hr
in
rain mn
in
humidity
%
barometer
mb
20260905044517 52 52 0.0 0.0 0.00 0.00 0.00 68 1011.1
20260905043016 53 52 0.0 0.0 0.00 0.00 0.00 67 1011.3
20260905041516 54 51 0.0 0.0 0.00 0.00 0.00 65 1011.4
20260905040016 55 51 0.0 0.0 0.00 0.00 0.00 61 1011.3
20260905034515 57 55 0.0 0.0 0.00 0.00 0.00 57 1011.2
20260905033028 58 55 0.0 0.0 0.00 0.00 0.00 56 1011.0
20260905031515 59 55 0.0 0.0 0.00 0.00 0.00 54 1010.9
20260905030015 61 54 0.0 0.0 0.00 0.00 0.00 52 1011.0
20260905024513 62 55 0.0 0.0 0.00 0.00 0.00 48 1010.8
20260905023012 62 55 0.0 0.0 0.00 0.00 0.00 47 1010.7
20260905021515 63 54 0.0 0.0 0.00 0.00 0.00 47 1010.7
20260905020013 64 56 0.0 0.0 0.00 0.00 0.00 47 1010.6
20260905014510 64 50 0.0 0.0 0.00 0.00 0.00 46 1010.6
20260905013015 65 14 0.0 0.0 0.00 0.00 0.00 46 1010.5
20260905011510 65 76 0.0 0.0 0.00 0.00 0.00 45 1010.5
20260905010010 65 87 0.0 0.0 0.00 0.00 0.00 47 1010.4
20260905004509 67 102 0.0 0.0 0.00 0.00 0.00 44 1010.3
20260905003009 71 303 0.0 0.0 0.00 0.00 0.00 36 1010.1
20260905001509 70 297 0.0 0.0 0.00 0.00 0.00 38 1010.0
20260905000011 69 9 0.0 0.0 0.00 0.00 0.00 37 1010.0
20260904234508 71 4 0.0 0.0 0.00 0.00 0.00 36 1010.0
20260904233007 70 55 0.0 0.0 0.00 0.00 0.00 37 1010.1
20260904231509 68 55 0.0 0.0 0.00 0.00 0.00 42 1010.1
20260904230007 68 55 0.0 0.0 0.00 0.00 0.00 40 1010.2
20260904224509 69 55 0.0 0.0 0.00 0.00 0.00 37 1010.3
20260904223006 71 40 0.0 0.0 0.00 0.00 0.00 35 1010.2
20260904221505 72 343 0.0 0.0 0.00 0.00 0.00 37 1010.2
20260904220002 70 342 0.0 0.0 0.00 0.00 0.00 36 1010.4
20260904214602 70 340 0.0 0.0 0.00 0.00 0.00 36 1010.4
20260904213057 69 346 0.0 0.0 0.00 0.00 0.00 41 1010.3
20260904211556 69 333 0.0 0.0 0.00 0.00 0.00 39 1010.3
20260904210057 68 333 0.0 0.0 0.00 0.00 0.00 38 1010.3
20260904204554 69 333 0.0 0.0 0.00 0.00 0.00 40 1010.2
20260904203054 69 333 0.0 0.0 0.00 0.00 0.00 44 1010.2
20260904201553 68 333 0.0 0.0 0.00 0.00 0.00 44 1010.4
20260904200057 67 332 0.0 0.0 0.00 0.00 0.00 45 1010.4
20260904194549 68 322 0.0 0.0 0.00 0.00 0.00 43 1010.4
20260904193047 67 322 0.0 0.0 0.00 0.00 0.00 45 1010.7
20260904191546 67 322 0.0 0.0 0.00 0.00 0.00 45 1010.7
20260904190048 66 318 0.0 0.0 0.00 0.00 0.00 47 1010.7
20260904184544 65 318 0.0 0.0 0.00 0.00 0.00 47 1010.9
20260904183101 67 318 0.0 0.0 0.00 0.00 0.00 45 1010.9
20260904181543 66 316 0.0 0.0 0.00 0.00 0.00 46 1011.1
20260904180136 64 312 0.0 0.0 0.00 0.00 0.00 49 1011.1
20260904174534 63 312 0.0 0.0 0.00 0.00 0.00 49 1011.2
20260904173030 63 312 0.0 0.0 0.00 0.00 0.00 51 1011.1
20260904171526 61 313 0.0 0.0 0.00 0.00 0.00 55 1011.0
20260904170025 60 313 0.0 0.0 0.00 0.00 0.00 57 1011.2
20260904164520 59 313 0.0 0.0 0.00 0.01 0.00 61 1011.1
20260904163017 57 313 0.0 0.0 0.00 0.01 0.00 63 1010.8
20260904161513 56 313 0.0 0.0 0.00 0.01 0.00 65 1010.7
20260904160008 54 313 0.0 0.0 0.00 0.01 0.00 70 1010.8
20260904154507 51 313 0.0 0.0 0.00 0.01 0.00 75 1010.9
20260904153006 51 283 0.0 0.0 0.00 0.01 0.00 77 1010.8
20260904151508 49 281 0.0 0.0 0.00 0.01 0.00 78 1010.6
20260904150005 47 338 0.0 0.0 0.00 0.01 0.00 80 1010.7
20260904144503 46 329 0.0 0.0 0.00 0.01 0.00 83 1010.6
20260904143004 45 192 0.0 0.0 0.00 0.01 0.00 84 1010.5
20260904141600 43 192 0.0 0.0 0.00 0.01 0.00 82 1010.3
20260904140059 44 204 0.0 0.0 0.00 0.01 0.00 81 1010.1
20260904134559 45 204 0.0 0.0 0.00 0.01 0.00 79 1009.8
20260904133054 45 204 0.0 0.0 0.00 0.01 0.00 79 1009.7
20260904131601 44 204 0.0 0.0 0.00 0.01 0.00 81 1009.8
20260904130052 44 204 0.0 0.0 0.00 0.01 0.00 81 1009.7
20260904124551 44 204 0.0 0.0 0.00 0.01 0.00 81 1009.5
20260904123049 44 204 0.0 0.0 0.00 0.01 0.00 81 1009.5
20260904121547 44 204 0.0 0.0 0.00 0.01 0.00 79 1009.4
20260904120044 45 204 0.0 0.0 0.00 0.01 0.00 81 1009.3
20260904114541 46 204 0.0 0.0 0.00 0.01 0.00 79 1009.0
20260904113043 47 204 0.0 0.0 0.00 0.01 0.00 77 1008.9
20260904111538 47 204 0.0 0.0 0.00 0.01 0.00 77 1008.7
20260904110032 48 204 0.0 0.0 0.00 0.01 0.00 75 1008.5
20260904104530 49 204 0.0 0.0 0.00 0.02 0.00 72 1008.5
20260904103027 49 203 0.0 0.0 0.00 0.02 0.00 72 1008.3
20260904101525 50 201 0.0 0.0 0.00 0.02 0.00 70 1007.9
20260904100028 50 205 0.0 0.0 0.00 0.02 0.00 71 1007.5
20260904094532 49 205 0.0 0.0 0.00 0.08 0.00 73 1007.6
20260904093022 50 205 0.0 0.0 0.00 0.08 0.00 72 1007.8
20260904091520 50 205 0.0 0.0 0.00 0.08 0.00 71 1007.7
20260904090019 50 205 0.0 0.0 0.00 0.08 0.00 69 1007.7
20260904084516 50 205 0.0 0.0 0.00 0.09 0.00 68 1007.7
20260904083027 51 205 0.0 0.0 0.00 0.09 0.00 66 1007.4
20260904081512 51 205 0.0 0.0 0.00 0.09 0.00 65 1007.2
20260904080009 52 205 0.0 0.0 0.00 0.09 0.00 63 1007.3
20260904074506 53 205 0.0 0.0 0.00 0.09 0.00 62 1007.1
20260904073003 53 137 0.0 0.0 0.00 0.09 0.00 59 1006.8
20260904071501 53 94 0.0 0.0 0.00 0.09 0.00 60 1006.8
20260904070059 53 110 0.0 0.0 0.00 0.09 0.00 60 1006.7
20260904064601 54 114 0.0 0.0 0.00 0.18 0.09 59 1006.7
20260904063106 54 130 0.0 0.0 0.00 0.18 0.09 59 1006.7
20260904061557 54 121 0.0 0.0 0.00 0.18 0.09 59 1006.8
20260904060105 54 133 0.0 0.0 0.00 0.18 0.09 60 1006.8
20260904054628 54 135 0.0 0.0 0.00 0.24 0.09 61 1006.7
20260904053057 54 130 0.0 0.0 0.00 0.24 0.09 61 1006.7
20260904051556 54 139 0.0 0.0 0.00 0.24 0.09 61 1006.8
20260904050055 55 127 0.0 0.0 0.00 0.24 0.09 61 1006.9